Volver al catálogo

STARLINK-5146

ActivoComunicacionesVLEO
NORAD 54073·PAYLOAD·🇺🇸 United States

Lanzado Oct 20, 2022 desde Cape Canaveral Space Force Station

Loading…

Próximos Pases (próximas 24 horas)

TLE

ActualizadoSource: CelesTrak SupGP

Época: Sep 15, 2026, 01:53 UTC

1 54073C 22136Y   26258.07895833 -.00150120  00000+0 -44371-2 0  2588
2 54073  53.1595 203.4094 0001325  84.4778 332.8889 15.34453060    13

Sigue STARLINK-5146 en tiempo real con AllMySat

Download on the App Store